Orbital Elements at Epoch 2459000.5 (2020-May-31.0) TDB
Reference: JPL 17 (heliocentric ecliptic J2000)
Element | Value | Uncertainty (1-sigma) | Units |
e | .2411288114449267 | 4.6024e-08 | |
a | 2.597641697510817 | 9.7054e-09 | au |
q | 1.971275442430252 | 1.1691e-07 | au |
i | 3.953087679677522 | 5.2017e-06 | deg |
node | 52.91716879920638 | 6.2848e-05 | deg |
peri | 299.5480796912432 | 6.3794e-05 | deg |
M | 90.0738983412062 | 1.2891e-05 | deg |
tp | 2458617.883446192157 (2019-May-14.38344619) | 5.3449e-05 | TDB |
period | 1529.21059160832 4.19 | 8.5703e-06 2.346e-08 | d yr |
n | .2354155810687765 | 1.3194e-09 | deg/d |
Q | 3.224007952591383 | 1.2046e-08 | au |
|
| | Orbit Determination Parameters
Additional Information
|